GW5592 Weather Reports


time (UTC)temp
C
wind
direction
speed
KPH
gust
KPH
rain 1hr
cm
rain 24hr
cm
rain mn
cm
humidity
%
barometer
mb
20260507043004 8 9 1.6 3.2 0.00 0.00 0.00 76 1011.4
20260507042508 8 18 1.6 3.2 0.00 0.00 0.00 76 1011.4
20260507042004 9 17 0.0 3.2 0.00 0.00 0.00 76 1011.5
20260507041508 9 11 0.0 3.2 0.00 0.00 0.00 75 1011.4
20260507041003 9 94 0.0 3.2 0.00 0.00 0.00 75 1011.4
20260507040507 9 67 0.0 3.2 0.00 0.00 0.00 75 1011.4
20260507040015 9 37 0.0 3.2 0.00 0.00 0.00 74 1011.4
20260507035506 10 21 0.0 3.2 0.00 0.00 0.00 74 1011.4
20260507035005 10 42 0.0 3.2 0.00 0.00 0.00 74 1011.3
20260507034513 10 42 0.0 3.2 0.00 0.00 0.00 73 1011.3
20260507034010 10 40 0.0 3.2 0.00 0.00 0.00 72 1011.4
20260507033506 10 34 0.0 1.6 0.00 0.00 0.00 73 1011.4
20260507033024 10 329 0.0 0.0 0.00 0.00 0.00 73 1011.4
20260507032504 10 69 0.0 0.0 0.00 0.00 0.00 72 1011.4
20260507032041 10 57 0.0 3.2 0.00 0.00 0.00 72 1011.4
20260507031508 10 5 0.0 6.4 0.00 0.00 0.00 72 1011.4
20260507031003 10 11 1.6 6.4 0.00 0.00 0.00 72 1011.3
20260507030504 10 18 0.0 1.6 0.00 0.00 0.00 72 1011.3
20260507030010 10 360 0.0 1.6 0.00 0.00 0.00 71 1011.2
20260507025508 10 345 1.6 3.2 0.00 0.00 0.00 71 1011.2
20260507025013 10 36 0.0 3.2 0.00 0.00 0.00 70 1011.2
20260507024518 10 38 0.0 0.0 0.00 0.00 0.00 70 1011.1
20260507024004 10 22 0.0 0.0 0.00 0.00 0.00 70 1011.2
20260507023505 10 22 0.0 0.0 0.00 0.00 0.00 70 1011.1
20260507023015 10 22 0.0 0.0 0.00 0.00 0.00 69 1011.1
20260507022507 10 17 0.0 3.2 0.00 0.00 0.00 69 1011.0
20260507022007 11 19 0.0 3.2 0.00 0.00 0.00 68 1011.1
20260507021528 11 43 1.6 3.2 0.00 0.00 0.00 67 1011.1
20260507021007 11 26 0.0 1.6 0.00 0.00 0.00 67 1011.1
20260507020505 11 352 0.0 3.2 0.00 0.00 0.00 68 1011.1
20260507020015 11 352 0.0 3.2 0.00 0.00 0.00 67 1011.1
20260507015506 11 14 0.0 3.2 0.00 0.00 0.00 67 1011.2
20260507015006 11 21 0.0 3.2 0.00 0.00 0.00 67 1011.1
20260507014519 11 20 1.6 3.2 0.00 0.00 0.00 66 1011.1
20260507014010 11 5 0.0 3.2 0.00 0.00 0.00 67 1011.2
20260507013505 11 13 0.0 3.2 0.00 0.00 0.00 67 1011.3
20260507013015 11 24 0.0 3.2 0.00 0.00 0.00 66 1011.4
20260507012507 11 36 0.0 3.2 0.00 0.00 0.00 67 1011.4
20260507012010 12 44 0.0 3.2 0.00 0.00 0.00 65 1011.5
20260507011527 12 31 1.6 3.2 0.00 0.00 0.00 64 1011.4
20260507011008 12 23 0.0 3.2 0.00 0.00 0.00 64 1011.5
20260507010510 12 352 0.0 3.2 0.00 0.00 0.00 63 1011.5
20260507010029 12 9 0.0 4.8 0.00 0.00 0.00 63 1011.6
20260507005507 12 19 0.0 4.8 0.00 0.00 0.00 61 1011.5
20260507005007 12 36 1.6 3.2 0.00 0.00 0.00 61 1011.6
20260507004518 12 47 0.0 3.2 0.00 0.00 0.00 61 1011.7
20260507004006 12 53 0.0 4.8 0.00 0.00 0.00 61 1011.7
20260507003507 12 39 1.6 4.8 0.00 0.00 0.00 62 1011.7
20260507003019 13 27 0.0 1.6 0.00 0.00 0.00 60 1011.7
20260507002506 13 69 0.0 3.2 0.00 0.00 0.00 60 1011.7
20260507002008 13 33 0.0 3.2 0.00 0.00 0.00 60 1011.8
20260507001516 13 32 0.0 3.2 0.00 0.00 0.00 59 1011.8
20260507001007 13 24 0.0 3.2 0.00 0.00 0.00 58 1011.7
20260507000512 13 57 0.0 3.2 0.00 0.00 0.00 58 1011.9
20260507000018 13 42 1.6 3.2 0.00 0.00 0.00 57 1012.0
20260506235506 13 360 0.0 1.6 0.00 0.00 0.00 55 1012.0
20260506235007 13 360 0.0 0.0 0.00 0.00 0.00 54 1012.0
20260506234519 13 360 0.0 0.0 0.00 0.00 0.00 54 1012.0
20260506234006 13 360 0.0 3.2 0.00 0.00 0.00 55 1012.1
20260506233506 13 360 0.0 3.2 0.00 0.00 0.00 55 1012.1
20260506233012 13 360 0.0 3.2 0.00 0.00 0.00 54 1012.1
20260506232506 13 360 0.0 3.2 0.00 0.00 0.00 52 1012.1
20260506232008 14 338 0.0 3.2 0.00 0.00 0.00 51 1012.1
20260506231525 14 262 0.0 3.2 0.00 0.00 0.00 51 1012.1
20260506231010 14 263 0.0 3.2 0.00 0.00 0.00 51 1012.1
20260506230506 15 246 1.6 3.2 0.00 0.00 0.00 51 1012.1
20260506230024 15 306 1.6 6.4 0.00 0.00 0.00 51 1012.1
20260506225511 15 5 3.2 6.4 0.00 0.00 0.00 51 1012.1
20260506225010 15 301 3.2 6.4 0.00 0.00 0.00 53 1012.2
20260506224520 15 279 1.6 3.2 0.00 0.00 0.00 53 1012.2
20260506224008 15 284 0.0 3.2 0.00 0.00 0.00 51 1012.2
20260506223513 15 292 1.6 3.2 0.00 0.00 0.00 51 1012.1
20260506223020 15 261 0.0 4.8 0.00 0.00 0.00 51 1012.1
20260506222509 15 253 1.6 4.8 0.00 0.00 0.00 51 1012.1
20260506222010 15 282 1.6 3.2 0.00 0.00 0.00 52 1012.2
20260506221516 15 274 1.6 4.8 0.00 0.00 0.00 52 1012.1
20260506221009 15 260 1.6 4.8 0.00 0.00 0.00 51 1012.1
20260506220507 15 306 1.6 4.8 0.00 0.00 0.00 51 1011.9
20260506220029 15 300 1.6 3.2 0.00 0.00 0.00 52 1012.0
20260506215508 15 283 0.0 3.2 0.00 0.00 0.00 53 1012.0
20260506215009 15 269 0.0 6.4 0.00 0.00 0.00 51 1012.0
20260506214521 15 228 3.2 6.4 0.00 0.00 0.00 52 1012.0
20260506214008 15 281 1.6 6.4 0.00 0.00 0.00 51 1012.0
20260506213511 15 261 0.0 4.8 0.00 0.00 0.00 51 1012.0
20260506213028 15 254 0.0 4.8 0.00 0.00 0.00 54 1011.9
20260506212508 15 229 3.2 6.4 0.00 0.00 0.00 51 1011.9
20260506212013 15 223 3.2 8.0 0.00 0.00 0.00 50 1011.9
20260506211527 15 205 1.6 9.7 0.00 0.00 0.00 51 1011.9
20260506211007 15 203 3.2 9.7 0.00 0.00 0.00 51 1011.8
20260506210508 15 200 3.2 8.0 0.00 0.00 0.00 51 1011.7
20260506210018 15 200 1.6 8.0 0.00 0.00 0.00 53 1011.7
20260506205507 15 208 3.2 8.0 0.00 0.00 0.00 52 1011.6
20260506205008 15 248 3.2 8.0 0.00 0.00 0.00 53 1011.5
20260506204531 15 259 1.6 6.4 0.00 0.00 0.00 53 1011.6
20260506204013 16 177 0.0 3.2 0.00 0.00 0.00 52 1011.4
20260506203508 16 202 0.0 4.8 0.00 0.00 0.00 52 1011.4
20260506203027 16 202 0.0 6.4 0.00 0.00 0.00 51 1011.3
20260506202509 16 209 0.0 9.7 0.00 0.00 0.00 52 1011.2
20260506202010 16 145 1.6 9.7 0.00 0.00 0.00 50 1011.1
20260506201527 16 190 1.6 6.4 0.00 0.00 0.00 50 1011.1
20260506201008 16 168 1.6 8.0 0.00 0.00 0.00 49 1011.1
20260506200505 16 173 3.2 8.0 0.00 0.00 0.00 50 1011.1
20260506200014 16 157 0.0 1.6 0.00 0.00 0.00 50 1011.0
20260506195506 16 109 0.0 6.4 0.00 0.00 0.00 49 1011.0
20260506195006 17 126 0.0 9.7 0.00 0.00 0.00 49 1010.9
20260506194519 17 200 4.8 9.7 0.00 0.00 0.00 48 1010.9
20260506194011 17 157 3.2 8.0 0.00 0.00 0.00 49 1010.8
20260506193509 17 157 0.0 3.2 0.00 0.00 0.00 48 1010.7
20260506193023 17 236 0.0 3.2 0.00 0.00 0.00 47 1010.7
20260506192506 17 294 0.0 6.4 0.00 0.00 0.00 47 1010.5
20260506192009 17 279 3.2 6.4 0.00 0.00 0.00 46 1010.5
20260506191511 18 195 1.6 6.4 0.00 0.00 0.00 43 1010.4
20260506191016 18 207 0.0 6.4 0.00 0.00 0.00 43 1010.3
20260506190508 18 209 0.0 3.2 0.00 0.00 0.00 40 1010.3
20260506190012 18 319 0.0 4.8 0.00 0.00 0.00 40 1010.1
20260506185505 18 268 0.0 4.8 0.00 0.00 0.00 40 1010.1
20260506185006 18 305 0.0 4.8 0.00 0.00 0.00 41 1010.1
20260506184519 18 269 1.6 6.4 0.00 0.00 0.00 40 1010.1
20260506184008 18 336 1.6 8.0 0.00 0.00 0.00 39 1010.1
20260506183508 18 320 3.2 11.3 0.00 0.00 0.00 38 1010.1
20260506183023 18 294 3.2 11.3 0.00 0.00 0.00 39 1010.1
20260506182506 18 293 1.6 8.0 0.00 0.00 0.00 39 1010.0
20260506182010 19 348 4.8 8.0 0.00 0.00 0.00 38 1010.1
20260506181528 19 325 3.2 8.0 0.00 0.00 0.00 38 1010.0
20260506181011 19 319 3.2 11.3 0.00 0.00 0.00 38 1010.1
20260506180510 19 5 3.2 11.3 0.00 0.00 0.00 38 1010.1
20260506180015 19 304 3.2 11.3 0.00 0.00 0.00 37 1010.1
20260506175506 19 286 4.8 11.3 0.00 0.00 0.00 37 1010.1
20260506175007 19 323 6.4 9.7 0.00 0.00 0.00 37 1010.1
20260506174515 20 347 3.2 12.9 0.00 0.00 0.00 37 1010.1
20260506174008 20 294 4.8 12.9 0.00 0.00 0.00 37 1010.0
20260506173507 20 279 8.0 12.9 0.00 0.00 0.00 36 1010.1
20260506173019 20 306 4.8 16.1 0.00 0.00 0.00 36 1010.1
20260506172508 20 296 6.4 17.7 0.00 0.00 0.00 37 1010.0
20260506172009 20 307 9.7 17.7 0.00 0.00 0.00 36 1010.0
20260506171535 20 295 4.8 16.1 0.00 0.00 0.00 35 1010.0
20260506171412 20 311 6.4 16.1 0.00 0.00 0.00 35 1010.0
20260506171407 20 311 8.0 19.3 0.00 0.00 0.00 35 1010.1
20260506171403 20 290 11.3 19.3 0.00 0.00 0.00 34 1010.0
20260506171358 20 276 11.3 20.9 0.00 0.00 0.00 34 1010.0
20260506171355 20 319 9.7 19.3 0.00 0.00 0.00 34 1009.9
20260506171350 21 265 6.4 14.5 0.00 0.00 0.00 34 1009.9
20260506150731 21 300 6.4 19.3 0.00 0.00 0.00 31 1010.4
20260506144052 22 247 8.0 14.5 0.00 0.00 0.00 31 1010.5
20260506143514 22 168 4.8 14.5 0.00 0.00 0.00 30 1010.6
20260506143043 22 252 6.4 17.7 0.00 0.00 0.00 29 1010.6
20260506142512 22 206 4.8 17.7 0.00 0.00 0.00 32 1010.7
20260506142011 22 279 4.8 14.5 0.00 0.00 0.00 34 1010.7
20260506141920 21 275 9.7 0.0 0.00 0.00 0.00 1011.0
20260506141813 21 223 6.4 19.3 0.00 0.00 0.00 33 1010.9
20260506133539 21 190 6.4 19.3 0.00 0.00 0.00 36 1010.9
20260506133012 20 256 8.0 19.3 0.00 0.00 0.00 35 1011.0
20260506132509 20 223 9.7 16.1 0.00 0.00 0.00 37 1010.9
20260506132008 20 261 9.7 14.5 0.00 0.00 0.00 36 1011.0
20260506131525 20 242 4.8 16.1 0.00 0.00 0.00 35 1011.0
20260506131006 20 329 4.8 16.1 0.00 0.00 0.00 35 1011.1
20260506130507 21 229 4.8 11.3 0.00 0.00 0.00 34 1011.1
20260506130023 20 236 4.8 14.5 0.00 0.00 0.00 34 1011.1
20260506125509 20 262 6.4 14.5 0.00 0.00 0.00 33 1011.2
20260506125011 20 327 4.8 11.3 0.00 0.00 0.00 34 1011.2
20260506124526 20 218 6.4 12.9 0.00 0.00 0.00 35 1011.1
20260506124009 21 237 3.2 12.9 0.00 0.00 0.00 34 1011.1
20260506123509 21 231 4.8 11.3 0.00 0.00 0.00 33 1011.2
20260506123009 21 203 4.8 14.5 0.00 0.00 0.00 34 1011.3
20260506122507 20 194 1.6 14.5 0.00 0.00 0.00 35 1011.3
20260506122012 20 281 1.6 12.9 0.00 0.00 0.00 36 1011.4
20260506121515 20 209 6.4 12.9 0.00 0.00 0.00 35 1011.4
20260506121006 20 229 3.2 11.3 0.00 0.00 0.00 35 1011.5
20260506120512 20 275 4.8 11.3 0.00 0.00 0.00 36 1011.5
20260506120020 21 144 1.6 6.4 0.00 0.00 0.00 35 1011.6
20260506115508 20 162 1.6 6.4 0.00 0.00 0.00 34 1011.6
20260506115006 20 101 3.2 14.5 0.00 0.00 0.00 36 1011.6
20260506114538 19 252 4.8 14.5 0.00 0.00 0.00 37 1011.8
20260506114008 20 276 6.4 12.9 0.00 0.00 0.00 39 1011.7
20260506113512 20 214 6.4 11.3 0.00 0.00 0.00 37 1011.8
20260506113026 19 192 1.6 9.7 0.00 0.00 0.00 38 1011.8
20260506112509 19 219 0.0 6.4 0.00 0.00 0.00 36 1011.8
20260506112009 20 178 1.6 11.3 0.00 0.00 0.00 35 1011.9
20260506111512 19 96 1.6 11.3 0.00 0.00 0.00 39 1011.9
20260506111007 19 180 3.2 9.7 0.00 0.00 0.00 36 1012.0
20260506110515 19 257 1.6 9.7 0.00 0.00 0.00 38 1012.1
20260506110018 19 220 3.2 8.0 0.00 0.00 0.00 36 1012.2
20260506105507 19 178 1.6 8.0 0.00 0.00 0.00 38 1012.3
20260506105010 18 141 1.6 8.0 0.00 0.00 0.00 37 1012.4
20260506104521 18 233 4.8 8.0 0.00 0.00 0.00 37 1012.5
20260506104008 18 69 0.0 8.0 0.00 0.00 0.00 36 1012.6
20260506103511 18 279 3.2 8.0 0.00 0.00 0.00 38 1012.7
20260506103027 18 177 1.6 8.0 0.00 0.00 0.00 40 1012.8
20260506102509 19 190 1.6 4.8 0.00 0.00 0.00 35 1012.8
20260506102009 18 194 0.0 9.7 0.00 0.00 0.00 40 1012.8
20260506101544 18 173 1.6 9.7 0.00 0.00 0.00 39 1012.8
20260506101015 18 133 3.2 8.0 0.00 0.00 0.00 37 1012.8
20260506100508 18 160 3.2 8.0 0.00 0.00 0.00 40 1012.8
20260506100018 18 140 1.6 8.0 0.00 0.00 0.00 40 1012.8
20260506095507 18 133 0.0 6.4 0.00 0.00 0.00 37 1012.8
20260506095011 18 18 0.0 4.8 0.00 0.00 0.00 43 1012.8
20260506094521 17 45 1.6 11.3 0.00 0.00 0.00 45 1012.8
20260506094007 17 145 0.0 11.3 0.00 0.00 0.00 48 1012.8
20260506093514 17 207 3.2 9.7 0.00 0.00 0.00 46 1012.8
20260506093026 16 159 3.2 8.0 0.00 0.00 0.00 50 1012.8
20260506092508 16 217 3.2 8.0 0.00 0.00 0.00 48 1012.7
20260506092010 16 188 1.6 6.4 0.00 0.00 0.00 47 1012.7
20260506091528 16 165 1.6 6.4 0.00 0.00 0.00 51 1012.7
20260506091010 16 166 1.6 4.8 0.00 0.00 0.00 48 1012.8
20260506090507 16 140 1.6 4.8 0.00 0.00 0.00 49 1012.8
20260506090029 16 82 1.6 6.4 0.00 0.00 0.00 51 1012.8
20260506085506 15 143 1.6 6.4 0.00 0.00 0.00 50 1013.0
20260506085009 15 147 0.0 4.8 0.00 0.00 0.00 49 1012.9
20260506084521 15 175 0.0 4.8 0.00 0.00 0.00 53 1013.0
20260506084009 15 227 1.6 4.8 0.00 0.00 0.00 53 1013.0
20260506083507 14 172 0.0 6.4 0.00 0.00 0.00 55 1013.0
20260506083005 13 213 1.6 6.4 0.00 0.00 0.00 54 1013.0
20260506082503 13 113 1.6 4.8 0.00 0.00 0.00 56 1013.0
20260506082003 13 204 0.0 3.2 0.00 0.00 0.00 55 1013.0
20260506081508 14 122 0.0 4.8 0.00 0.00 0.00 56 1013.0
20260506081009 13 172 0.0 4.8 0.00 0.00 0.00 59 1013.1
20260506080507 13 226 0.0 4.8 0.00 0.00 0.00 59 1013.1
20260506073507 12 42 0.0 3.2 0.00 0.00 0.00 60 1013.0
20260506073023 11 97 0.0 3.2 0.00 0.00 0.00 63 1013.0
20260506072508 11 109 0.0 3.2 0.00 0.00 0.00 60 1013.1
20260506072004 11 97 0.0 3.2 0.00 0.00 0.00 63 1013.2
20260506071513 11 30 0.0 3.2 0.00 0.00 0.00 64 1013.2
20260506071004 10 298 0.0 4.8 0.00 0.00 0.00 67 1013.2
20260506070503 10 313 1.6 4.8 0.00 0.00 0.00 67 1013.2
20260506062516 7 66 0.0 3.2 0.00 0.00 0.00 72 1013.2
20260506062009 7 30 0.0 3.2 0.00 0.00 0.00 73 1013.2
20260506061524 7 85 0.0 3.2 0.00 0.00 0.00 74 1013.3
20260506061002 7 106 0.0 3.2 0.00 0.00 0.00 74 1013.1
20260506060506 6 63 0.0 3.2 0.00 0.00 0.00 74 1013.0
20260506051009 6 17 0.0 3.2 0.00 0.00 0.00 74 1012.9
20260506050517 6 28 0.0 3.2 0.00 0.00 0.00 74 1012.9
20260506045007 7 24 3.2 8.0 0.00 0.00 0.00 73 1012.9
20260506044511 6 57 1.6 4.8 0.00 0.00 0.00 74 1012.9
20260506044006 6 5 0.0 3.2 0.00 0.00 0.00 76 1012.9
20260506043506 6 37 0.0 4.8 0.00 0.00 0.00 75 1012.9